This is the latest recevied weather packets stored in our database for station/object KJ6APE. If no packets are shown the sender has not sent any weather packets the latest 10 day(s).
| Time | Temp. | Humidity | Pressure | Rain* | Wind** | Luminosity | Snow |
|---|---|---|---|---|---|---|---|
| 1778213581 | 15.56° C | 75% | 1017.2 hPa | 0 mm | - | 0 W/m² | - |
| 1778213277 | 15.56° C | 75% | 1016.9 hPa | 0 mm | - | 0 W/m² | - |
| 1778212974 | 15.56° C | 74% | 1016.7 hPa | 0 mm | - | 0 W/m² | - |
| 1778212672 | 16.11° C | 73% | 1016.9 hPa | 0 mm | - | 0 W/m² | - |
| 1778212369 | 16.11° C | 73% | 1016.9 hPa | 0 mm | - | 0 W/m² | - |
| 1778212065 | 16.11° C | 72% | 1016.5 hPa | 0 mm | - | 0 W/m² | - |
| 1778211763 | 16.67° C | 72% | 1016.5 hPa | 0 mm | - | 0 W/m² | - |
| 1778211460 | 16.67° C | 71% | 1016.4 hPa | 0 mm | - | 0 W/m² | - |
| 1778211158 | 16.67° C | 71% | 1016.6 hPa | 0 mm | - | 0 W/m² | - |
| 1778210855 | 16.67° C | 70% | 1016.4 hPa | 0 mm | - | 0 W/m² | - |
| 1778210552 | 17.22° C | 70% | 1016.3 hPa | 0 mm | - | 0 W/m² | - |
| 1778210249 | 17.22° C | 69% | 1016.2 hPa | 0 mm | - | 1 W/m² | - |
| 1778209945 | 17.22° C | 69% | 1016.4 hPa | 0 mm | - | 2 W/m² | - |
| 1778209642 | 17.78° C | 68% | 1016.4 hPa | 0 mm | - | 3 W/m² | - |
| 1778209339 | 17.78° C | 67% | 1016.1 hPa | 0 mm | - | 6 W/m² | - |
| 1778209036 | 17.78° C | 66% | 1016.2 hPa | 0 mm | - | 9 W/m² | - |
| 1778208733 | 18.33° C | 65% | 1016 hPa | 0 mm | - | 13 W/m² | - |
| 1778208429 | 18.89° C | 64% | 1016 hPa | 0 mm | - | 17 W/m² | - |
| 1778208126 | 19.44° C | 62% | 1016.2 hPa | 0 mm | - | 21 W/m² | - |
| 1778207822 | 20° C | 61% | 1016.2 hPa | 0 mm | - | 32 W/m² | - |
| 1778207520 | 20° C | 61% | 1015.9 hPa | 0 mm | - | 40 W/m² | - |
| 1778207215 | 20° C | 60% | 1016 hPa | 0 mm | - | 48 W/m² | - |
| 1778206913 | 20.56° C | 59% | 1015.9 hPa | 0 mm | - | 58 W/m² | - |
| 1778206609 | 20.56° C | 58% | 1016.1 hPa | 0 mm | - | 63 W/m² | - |
| 1778206304 | 21.11° C | 57% | 1016.1 hPa | 0 mm | - | 75 W/m² | - |
* Rain latest hour (hover to see other rain measurements)
** Current wind speed in m/s (hover to see current wind gust speed)